Simultaneous Nadir Overpasses (SNOs) Predictions

Prediction of SNOs between AQUA and METOP-B Satellite Orbit:

Table of predicted SNOs for the next 14.0 days since TLE Epoch: 11/2/2018
Index Date (AQUA) Time (AQUA) Lat,Lon (AQUA) SZA (AQUA ) Date (METOP-B) Time (METOP-B) Lat,Lon (METOP-B) SZA (METOP-B ) Distance(km) Time Diff (sec)
1 11/04/2018 06:26:52 -73.48,-101.76 91.25 11/04/2018 06:25:43 -73.43,-103.59 91.27 58.12 69
2 11/04/2018 07:16:28 73.95, 64.84 89.25 11/04/2018 07:16:13 73.93, 64.91 89.23 3.19 15
3 11/04/2018 08:05:55 -73.99,-127.61 90.70 11/04/2018 08:06:53 -74.01,-127.56 90.68 2.39 58
4 11/07/2018 02:01:14 -73.89, -36.22 89.98 11/07/2018 02:00:00 -73.87, -36.17 90.00 3.06 74
5 11/07/2018 02:50:41 73.90, 131.40 90.05 11/07/2018 02:50:39 73.92, 131.28 90.07 3.80 2
6 11/07/2018 03:40:09 -73.99, -61.16 89.85 11/07/2018 03:41:19 -74.00, -61.19 89.85 1.13 70
7 11/09/2018 21:35:27 -73.89, 30.22 89.16 11/09/2018 21:34:24 -73.90, 30.32 89.15 3.13 63
8 11/09/2018 22:24:55 73.96,-162.30 90.93 11/09/2018 22:25:03 73.95,-162.23 90.92 2.46 8
9 11/09/2018 23:14:28 -74.30, 4.56 88.72 11/09/2018 23:15:38 -74.28, 5.92 88.76 40.94 70
10 11/12/2018 17:09:41 -73.90, 96.64 88.37 11/12/2018 17:08:50 -73.89, 96.69 88.38 2.13 51
11 11/12/2018 17:59:08 73.92, -95.76 91.66 11/12/2018 17:59:29 73.94, -95.86 91.68 3.24 21
12 11/15/2018 12:43:54 -73.86, 163.17 87.68 11/15/2018 12:43:16 -73.88, 163.07 87.66 3.44 38
13 11/15/2018 13:33:22 73.94, -29.36 92.42 11/15/2018 13:33:54 73.97, -29.36 92.45 3.64 32




NCC Satellite Simultaneous Nadir Overpasses (SNOs) Prediction Service
